This is the latest recevied weather packets stored in our database for station/object KI5RAB. If no packets are shown the sender has not sent any weather packets the latest 10 day(s).
| Time | Temp. | Humidity | Pressure | Rain* | Wind** | Luminosity | Snow |
|---|---|---|---|---|---|---|---|
| 1788269663 | 28.33° C | 81% | 1020.2 hPa | 0 mm | - | 120 W/m² | - |
| 1788269362 | 27.78° C | 83% | 1020.2 hPa | 0 mm | - | 82 W/m² | - |
| 1788269057 | 27.22° C | 83% | 1020.2 hPa | 0 mm | - | 96 W/m² | - |
| 1788268756 | 27.22° C | 85% | 1019.8 hPa | 0 mm | - | 85 W/m² | - |
| 1788268455 | 26.67° C | 87% | 1019.8 hPa | 0 mm | - | 74 W/m² | - |
| 1788268161 | 26.67° C | 87% | 1020 hPa | 0 mm | - | 65 W/m² | - |
| 1788267846 | 26.11° C | 90% | 1019.8 hPa | 0 mm | - | 53 W/m² | - |
| 1788267544 | 25.56° C | 92% | 1020 hPa | 0 mm | - | 44 W/m² | - |
| 1788267243 | 25° C | 94% | 1019.7 hPa | 0 mm | - | 36 W/m² | - |
| 1788266938 | 24.44° C | 95% | 1019.8 hPa | 0 mm | - | 24 W/m² | - |
| 1788266633 | 24.44° C | 95% | 1019.7 hPa | 0 mm | - | 23 W/m² | - |
| 1788266333 | 24.44° C | 95% | 1019.6 hPa | 0 mm | - | 20 W/m² | - |
| 1788266028 | 24.44° C | 95% | 1019.5 hPa | 0 mm | - | 16 W/m² | - |
| 1788265726 | 23.89° C | 94% | 1019.5 hPa | 0 mm | - | 13 W/m² | - |
| 1788265421 | 24.44° C | 94% | 1019.7 hPa | 0 mm | - | 9 W/m² | - |
| 1788265120 | 24.44° C | 94% | 1019.7 hPa | 0 mm | - | 6 W/m² | - |
| 1788264815 | 24.44° C | 94% | 1019.5 hPa | 0 mm | - | 3 W/m² | - |
| 1788264511 | 24.44° C | 94% | 1019.5 hPa | 0 mm | - | 2 W/m² | - |
| 1788264205 | 24.44° C | 94% | 1019.7 hPa | 0 mm | - | 1 W/m² | - |
| 1788263900 | 24.44° C | 93% | 1019.5 hPa | 0 mm | - | 0 W/m² | - |
| 1788263595 | 24.44° C | 93% | 1019.3 hPa | 0 mm | - | 0 W/m² | - |
| 1788263293 | 25° C | 93% | 1019.7 hPa | 0 mm | - | 0 W/m² | - |
| 1788262988 | 25° C | 92% | 1019.7 hPa | 0 mm | - | 0 W/m² | - |
| 1788262686 | 25° C | 92% | 1019.6 hPa | 0 mm | - | 0 W/m² | - |
| 1788262381 | 25° C | 91% | 1019.6 hPa | 0 mm | - | 0 W/m² | - |
* Rain latest hour (hover to see other rain measurements)
** Current wind speed in m/s (hover to see current wind gust speed)